Flag for Czech Republic Weather past 2 weeks in Ostrava, Czech Republic

Now
52 °F

Overcast.


Feels Like: 49 °F
Forecast: 38 / 47 °F
Wind: 8 mph from Southwest

Location: Ostrava / Mosnov

Current Time: Dec 19, 2014 at 11:25:48 AM

Latest Report: Dec 19, 2014 at 10:00 AM


Visibility: 19 mi

Pressure: 29.96 "Hg

Humidity: 82%

Dew point: 47 °F

Location of OstravaLocation

Historic Weather in Ostrava — Graph

°F

Ostrava temperature yesterday

Maximum temperature yesterday: 48 °F (at 11:00 PM)
Minimum temperature yesterday: 38 °F (at 12:00 AM)
Average temperature yesterday: 43 °F

Past Weeks' High & Low Weather Summary

 TemperatureHumidityPressure
High52 °F (Dec 19, 10:00 AM)99% (Dec 5, 4:00 AM)30.44 "Hg (Dec 5, 4:00 AM)
Low26 °F (Dec 10, 3:00 AM)50% (Dec 12, 3:00 PM)29.81 "Hg (Dec 12, 11:00 PM)
Average38 °F87%30.07 "Hg
* Reported Dec 4 10:00 AM — Dec 19 10:00 AM, Ostrava, Weather by CustomWeather, © 2014

Note: Actual official high and low records may vary slightly from our data, if they occured in-between our weather recording intervals... More about our weather records

Advertising

Ostrava weather history for previous 24 hours

 ConditionsComfort  
Time TempWeatherWind HumidityBarometerVisibility
10:00 AM
Dec 19
52 °FOvercast.8 mph82%29.96 "Hg19 mi
9:00 AM51 °FOvercast.10 mph88%29.97 "Hg19 mi
8:00 AM51 °FOvercast.6 mph88%29.97 "Hg19 mi
7:00 AM51 °FOvercast.9 mph88%29.94 "Hg16 mi
6:00 AM51 °FOvercast.8 mph89%29.93 "Hg16 mi
5:00 AM50 °FOvercast.8 mph90%29.92 "Hg12 mi
3:00 AM49 °FLight rain. Overcast.7 mph92%29.94 "Hg12 mi
2:00 AM49 °FLight rain. Overcast.8 mph91%29.93 "Hg7 mi
1:00 AM48 °FLight rain. Overcast.8 mph92%29.93 "Hg7 mi
12:00 AM48 °FLight rain. Overcast.8 mph89%29.93 "Hg9 mi
11:00 PM
Dec 18
48 °FOvercast.8 mph86%29.94 "Hg12 mi
9:00 PM47 °FOvercast.9 mph82%29.96 "Hg12 mi
8:00 PM47 °FOvercast.10 mph82%29.96 "Hg12 mi
7:00 PM46 °FOvercast.7 mph82%29.97 "Hg12 mi
6:00 PM46 °FOvercast.9 mph82%29.98 "Hg12 mi
5:00 PM45 °FLight rain. Overcast.8 mph83%29.98 "Hg12 mi
4:00 PM45 °FPassing clouds.7 mph83%29.99 "Hg19 mi
3:00 PM44 °FPartly sunny.6 mph86%29.99 "Hg19 mi
2:00 PM46 °FPartly sunny.5 mph77%29.99 "Hg16 mi
1:00 PM45 °FOvercast.7 mph81%29.99 "Hg16 mi
12:00 PM43 °FOvercast.8 mph87%29.99 "Hg12 mi
11:00 AM43 °FLight rain. Overcast.9 mph87%30.01 "Hg9 mi
Weather by CustomWeather, © 2014

See weather overviewHow to use our weather pages